Location: Sky Meadows State Park
(38.9917°N, 77.9667°W)
Time: 12:51:45
(UTC-04:00)

ISS - Visible Passes

Search period start: 24 June 2018 00:00
Search period end: 04 July 2018 00:00
Orbit: 402 x 407 km, 51.6° (Epoch: 25 June)

Date Brightness Start Highest point End Pass type
(mag) Time Alt. Az. Time Alt. Az. Time Alt. Az.
01 Jul -1.4 04:28:25 10° SSE 04:30:22 15° SE 04:32:19 10° E visible
02 Jul -3.8 05:11:05 10° SW 05:14:21 78° SE 05:17:39 10° NE visible
03 Jul -2.9 04:20:53 24° S 04:22:15 37° SE 04:25:20 10° ENE visible
